PRIVATE WETTERSTATION BILLIGHEIM-ALLFELD                       ZURCK
Wetterdaten: Freitag, 18.02.2022
Datum Zeit Temp. A. Temp. A. min Temp. A. max Feuchte A. Luftdruck Regen Wind Richtung Richtung Sonnenschein ET Solar Taupunkt Windchill Windben Empfang
18.02.2022 00:00 8,1 C 8,1 C 8,1 C 78 % 1013,8 hPa 0,0 l/m 3,2 km/h (1 Bft) SW 225 0 min 0,025 mm 0 W/m 4,5 C 8,1 C 17,7 km/h (3 Bft) 100 %
18.02.2022 00:10 8,1 C 8,1 C 8,1 C 78 % 1013,6 hPa 0,0 l/m 6,4 km/h (2 Bft) SW 225 0 min 0,000 mm 0 W/m 4,5 C 8,1 C 17,7 km/h (3 Bft) 100 %
18.02.2022 00:20 8,1 C 8,1 C 8,1 C 78 % 1013,6 hPa 0,0 l/m 6,4 km/h (2 Bft) SW 225 0 min 0,000 mm 0 W/m 4,5 C 8,1 C 22,5 km/h (4 Bft) 100 %
18.02.2022 00:30 8,2 C 8,1 C 8,2 C 77 % 1013,4 hPa 0,0 l/m 6,4 km/h (2 Bft) SW 225 0 min 0,000 mm 0 W/m 4,4 C 8,2 C 24,1 km/h (4 Bft) 100 %
18.02.2022 00:40 8,3 C 8,2 C 8,3 C 76 % 1013,2 hPa 0,0 l/m 12,9 km/h (3 Bft) SW 225 0 min 0,000 mm 0 W/m 4,3 C 4,1 C 37,0 km/h (5 Bft) 100 %
18.02.2022 00:50 8,2 C 8,2 C 8,3 C 76 % 1013,2 hPa 0,0 l/m 8,0 km/h (2 Bft) SW 225 0 min 0,000 mm 0 W/m 4,2 C 7,0 C 25,7 km/h (4 Bft) 100 %
18.02.2022 01:00 8,2 C 8,2 C 8,2 C 75 % 1013,3 hPa 0,0 l/m 8,0 km/h (2 Bft) SW 225 0 min 0,025 mm 0 W/m 4,0 C 7,0 C 33,8 km/h (5 Bft) 100 %
18.02.2022 01:10 8,2 C 8,2 C 8,2 C 75 % 1013,5 hPa 0,0 l/m 8,0 km/h (2 Bft) W-SW 247 0 min 0,000 mm 0 W/m 4,0 C 7,0 C 29,0 km/h (5 Bft) 100 %
18.02.2022 01:20 8,2 C 8,2 C 8,3 C 75 % 1013,2 hPa 0,0 l/m 11,3 km/h (2 Bft) SW 225 0 min 0,000 mm 0 W/m 4,0 C 4,8 C 30,6 km/h (5 Bft) 100 %
18.02.2022 01:30 8,1 C 8,1 C 8,2 C 75 % 1013,4 hPa 0,0 l/m 8,0 km/h (2 Bft) SW 225 0 min 0,000 mm 0 W/m 3,9 C 6,9 C 24,1 km/h (4 Bft) 100 %
18.02.2022 01:40 7,9 C 7,9 C 8,1 C 75 % 1013,2 hPa 0,0 l/m 6,4 km/h (2 Bft) SW 225 0 min 0,000 mm 0 W/m 3,7 C 7,9 C 22,5 km/h (4 Bft) 99 %
18.02.2022 01:50 7,9 C 7,9 C 8,0 C 75 % 1013,6 hPa 0,0 l/m 8,0 km/h (2 Bft) SW 225 0 min 0,000 mm 0 W/m 3,7 C 6,6 C 33,8 km/h (5 Bft) 100 %
18.02.2022 02:00 7,9 C 7,9 C 8,0 C 75 % 1013,6 hPa 0,0 l/m 8,0 km/h (2 Bft) SW 225 0 min 0,025 mm 0 W/m 3,7 C 6,6 C 22,5 km/h (4 Bft) 100 %
18.02.2022 02:10 7,9 C 7,9 C 7,9 C 76 % 1013,6 hPa 0,0 l/m 8,0 km/h (2 Bft) SW 225 0 min 0,000 mm 0 W/m 3,9 C 6,6 C 24,1 km/h (4 Bft) 100 %
18.02.2022 02:20 7,9 C 7,9 C 8,0 C 76 % 1013,7 hPa 0,0 l/m 3,2 km/h (1 Bft) SW 225 0 min 0,000 mm 0 W/m 3,9 C 7,9 C 19,3 km/h (3 Bft) 100 %
18.02.2022 02:30 7,8 C 7,8 C 7,9 C 76 % 1013,7 hPa 0,0 l/m 3,2 km/h (1 Bft) SW 225 0 min 0,000 mm 0 W/m 3,8 C 7,8 C 14,5 km/h (3 Bft) 100 %
18.02.2022 02:40 7,8 C 7,8 C 7,8 C 77 % 1013,6 hPa 0,0 l/m 3,2 km/h (1 Bft) W-SW 247 0 min 0,000 mm 0 W/m 4,0 C 7,8 C 19,3 km/h (3 Bft) 100 %
18.02.2022 02:50 7,8 C 7,8 C 7,8 C 77 % 1013,6 hPa 0,0 l/m 4,8 km/h (1 Bft) SW 225 0 min 0,000 mm 0 W/m 4,0 C 7,8 C 19,3 km/h (3 Bft) 100 %
18.02.2022 03:00 7,9 C 7,8 C 7,9 C 77 % 1013,6 hPa 0,0 l/m 6,4 km/h (2 Bft) SW 225 0 min 0,025 mm 0 W/m 4,1 C 7,9 C 24,1 km/h (4 Bft) 100 %
18.02.2022 03:10 7,9 C 7,8 C 7,9 C 76 % 1013,6 hPa 0,0 l/m 4,8 km/h (1 Bft) W-SW 247 0 min 0,000 mm 0 W/m 3,9 C 7,9 C 20,9 km/h (4 Bft) 99 %
18.02.2022 03:20 7,9 C 7,8 C 7,9 C 77 % 1013,3 hPa 0,0 l/m 3,2 km/h (1 Bft) SW 225 0 min 0,000 mm 0 W/m 4,1 C 7,9 C 16,1 km/h (3 Bft) 91 %
18.02.2022 03:30 7,7 C 7,7 C 7,9 C 77 % 1013,4 hPa 0,0 l/m 3,2 km/h (1 Bft) SW 225 0 min 0,000 mm 0 W/m 3,9 C 7,7 C 16,1 km/h (3 Bft) 100 %
18.02.2022 03:40 7,6 C 7,6 C 7,7 C 77 % 1013,4 hPa 0,0 l/m 3,2 km/h (1 Bft) SW 225 0 min 0,000 mm 0 W/m 3,8 C 7,6 C 17,7 km/h (3 Bft) 100 %
18.02.2022 03:50 7,5 C 7,5 C 7,6 C 78 % 1013,1 hPa 0,0 l/m 1,6 km/h (1 Bft) SW 225 0 min 0,000 mm 0 W/m 3,9 C 7,5 C 12,9 km/h (3 Bft) 100 %
18.02.2022 04:00 7,3 C 7,3 C 7,5 C 79 % 1012,9 hPa 0,0 l/m 3,2 km/h (1 Bft) S-SW 202 0 min 0,025 mm 0 W/m 3,9 C 7,3 C 16,1 km/h (3 Bft) 100 %
18.02.2022 04:10 7,1 C 7,1 C 7,3 C 80 % 1012,8 hPa 0,0 l/m 1,6 km/h (1 Bft) S-SW 202 0 min 0,000 mm 0 W/m 3,9 C 7,1 C 11,3 km/h (2 Bft) 100 %
18.02.2022 04:20 6,9 C 6,8 C 7,1 C 80 % 1012,7 hPa 0,0 l/m 1,6 km/h (1 Bft) S-SW 202 0 min 0,000 mm 0 W/m 3,7 C 6,9 C 9,7 km/h (2 Bft) 100 %
18.02.2022 04:30 6,9 C 6,8 C 6,9 C 80 % 1012,7 hPa 0,0 l/m 3,2 km/h (1 Bft) S-SW 202 0 min 0,000 mm 0 W/m 3,7 C 6,9 C 11,3 km/h (2 Bft) 100 %
18.02.2022 04:40 6,9 C 6,9 C 7,0 C 81 % 1012,6 hPa 0,0 l/m 0,0 km/h (0 Bft) S-SW 202 0 min 0,000 mm 0 W/m 3,9 C 6,9 C 11,3 km/h (2 Bft) 100 %
18.02.2022 04:50 6,7 C 6,7 C 6,9 C 81 % 1012,7 hPa 0,0 l/m 0,0 km/h (0 Bft) S 180 0 min 0,000 mm 0 W/m 3,7 C 6,7 C 4,8 km/h (1 Bft) 100 %
18.02.2022 05:00 6,6 C 6,6 C 6,7 C 82 % 1012,5 hPa 0,0 l/m 1,6 km/h (1 Bft) S 180 0 min 0,025 mm 0 W/m 3,8 C 6,6 C 9,7 km/h (2 Bft) 100 %
18.02.2022 05:10 6,7 C 6,7 C 6,7 C 82 % 1012,5 hPa 0,0 l/m 0,0 km/h (0 Bft) S 180 0 min 0,000 mm 0 W/m 3,8 C 6,7 C 1,6 km/h (1 Bft) 100 %
18.02.2022 05:20 6,8 C 6,7 C 6,8 C 81 % 1012,4 hPa 0,0 l/m 0,0 km/h (0 Bft) N 0 0 min 0,000 mm 0 W/m 3,8 C 6,8 C 0,0 km/h (0 Bft) 100 %
18.02.2022 05:30 7,0 C 6,8 C 7,0 C 81 % 1012,0 hPa 0,0 l/m 0,0 km/h (0 Bft) N 0 0 min 0,000 mm 0 W/m 4,0 C 7,0 C 0,0 km/h (0 Bft) 100 %
18.02.2022 05:40 7,1 C 7,0 C 7,1 C 80 % 1012,2 hPa 0,0 l/m 0,0 km/h (0 Bft) N 0 0 min 0,000 mm 0 W/m 3,9 C 7,1 C 0,0 km/h (0 Bft) 90 %
18.02.2022 05:50 7,1 C 7,1 C 7,1 C 80 % 1012,0 hPa 0,0 l/m 0,0 km/h (0 Bft) S 180 0 min 0,000 mm 0 W/m 3,9 C 7,1 C 4,8 km/h (1 Bft) 100 %
18.02.2022 06:00 7,1 C 7,0 C 7,1 C 80 % 1011,9 hPa 0,0 l/m 0,0 km/h (0 Bft) S 180 0 min 0,000 mm 0 W/m 3,9 C 7,1 C 1,6 km/h (1 Bft) 100 %
18.02.2022 06:10 7,0 C 6,9 C 7,1 C 80 % 1011,7 hPa 0,0 l/m 0,0 km/h (0 Bft) S-SO 157 0 min 0,000 mm 0 W/m 3,8 C 7,0 C 8,0 km/h (2 Bft) 100 %
18.02.2022 06:20 6,9 C 6,9 C 7,0 C 81 % 1011,4 hPa 0,0 l/m 1,6 km/h (1 Bft) S-SO 157 0 min 0,000 mm 0 W/m 3,9 C 6,9 C 8,0 km/h (2 Bft) 100 %
18.02.2022 06:30 6,9 C 6,9 C 6,9 C 81 % 1011,1 hPa 0,0 l/m 0,0 km/h (0 Bft) S-SO 157 0 min 0,000 mm 0 W/m 3,9 C 6,9 C 6,4 km/h (2 Bft) 100 %
18.02.2022 06:40 6,8 C 6,8 C 6,9 C 81 % 1010,7 hPa 0,0 l/m 0,0 km/h (0 Bft) S 180 0 min 0,000 mm 0 W/m 3,8 C 6,8 C 6,4 km/h (2 Bft) 100 %
18.02.2022 06:50 6,7 C 6,7 C 6,8 C 81 % 1010,5 hPa 0,0 l/m 0,0 km/h (0 Bft) S 180 0 min 0,000 mm 0 W/m 3,7 C 6,7 C 6,4 km/h (2 Bft) 100 %
18.02.2022 07:00 6,5 C 6,5 C 6,7 C 83 % 1010,6 hPa 0,0 l/m 0,0 km/h (0 Bft) S-SO 157 0 min 0,000 mm 0 W/m 3,8 C 6,5 C 4,8 km/h (1 Bft) 100 %
18.02.2022 07:10 6,4 C 6,3 C 6,5 C 83 % 1010,4 hPa 0,0 l/m 1,6 km/h (1 Bft) S-SO 157 0 min 0,000 mm 0 W/m 3,7 C 6,4 C 9,7 km/h (2 Bft) 100 %
18.02.2022 07:20 6,4 C 6,4 C 6,4 C 83 % 1010,4 hPa 0,2 l/m 1,6 km/h (1 Bft) SO 135 0 min 0,000 mm 0 W/m 3,7 C 6,4 C 8,0 km/h (2 Bft) 100 %
18.02.2022 07:30 6,6 C 6,4 C 6,6 C 83 % 1010,1 hPa 0,0 l/m 1,6 km/h (1 Bft) S-SO 157 0 min 0,000 mm 0 W/m 3,9 C 6,6 C 8,0 km/h (2 Bft) 100 %
18.02.2022 07:40 6,6 C 6,6 C 6,6 C 82 % 1010,0 hPa 0,0 l/m 1,6 km/h (1 Bft) S-SO 157 0 min 0,000 mm 0 W/m 3,8 C 6,6 C 9,7 km/h (2 Bft) 100 %
18.02.2022 07:50 6,6 C 6,6 C 6,7 C 82 % 1009,7 hPa 0,0 l/m 3,2 km/h (1 Bft) S-SO 157 0 min 0,000 mm 7 W/m 3,8 C 6,6 C 11,3 km/h (2 Bft) 100 %
18.02.2022 08:00 6,7 C 6,7 C 6,7 C 83 % 1009,5 hPa 0,0 l/m 3,2 km/h (1 Bft) S-SO 157 0 min 0,000 mm 18 W/m 4,0 C 6,7 C 12,9 km/h (3 Bft) 100 %
18.02.2022 08:10 6,7 C 6,7 C 6,7 C 82 % 1009,4 hPa 0,0 l/m 3,2 km/h (1 Bft) S-SO 157 0 min 0,000 mm 32 W/m 3,8 C 6,7 C 9,7 km/h (2 Bft) 99 %
18.02.2022 08:20 7,0 C 6,7 C 7,0 C 81 % 1009,2 hPa 0,0 l/m 3,2 km/h (1 Bft) S-SO 157 0 min 0,000 mm 32 W/m 4,0 C 7,0 C 11,3 km/h (2 Bft) 99 %
18.02.2022 08:30 7,3 C 7,0 C 7,3 C 80 % 1009,0 hPa 0,0 l/m 3,2 km/h (1 Bft) S 180 0 min 0,000 mm 30 W/m 4,1 C 7,3 C 14,5 km/h (3 Bft) 99 %
18.02.2022 08:40 7,4 C 7,3 C 7,4 C 81 % 1009,0 hPa 0,0 l/m 3,2 km/h (1 Bft) S 180 0 min 0,000 mm 30 W/m 4,4 C 7,4 C 17,7 km/h (3 Bft) 98 %
18.02.2022 08:50 7,3 C 7,3 C 7,4 C 81 % 1009,0 hPa 0,0 l/m 1,6 km/h (1 Bft) S 180 0 min 0,000 mm 28 W/m 4,3 C 7,3 C 16,1 km/h (3 Bft) 98 %
18.02.2022 09:00 7,4 C 7,3 C 7,4 C 81 % 1008,8 hPa 0,0 l/m 1,6 km/h (1 Bft) S 180 0 min 0,025 mm 30 W/m 4,4 C 7,4 C 11,3 km/h (2 Bft) 98 %
18.02.2022 09:10 7,5 C 7,4 C 7,5 C 82 % 1008,4 hPa 0,0 l/m 3,2 km/h (1 Bft) S 180 0 min 0,000 mm 46 W/m 4,6 C 7,5 C 16,1 km/h (3 Bft) 97 %
18.02.2022 09:20 7,5 C 7,4 C 7,5 C 83 % 1008,4 hPa 0,0 l/m 3,2 km/h (1 Bft) S 180 0 min 0,000 mm 70 W/m 4,8 C 7,5 C 17,7 km/h (3 Bft) 97 %
18.02.2022 09:30 7,4 C 7,4 C 7,5 C 85 % 1008,1 hPa 0,0 l/m 3,2 km/h (1 Bft) S 180 0 min 0,000 mm 46 W/m 5,0 C 7,4 C 16,1 km/h (3 Bft) 98 %
18.02.2022 09:40 7,3 C 7,3 C 7,4 C 86 % 1008,0 hPa 0,0 l/m 3,2 km/h (1 Bft) S 180 0 min 0,000 mm 42 W/m 5,1 C 7,3 C 14,5 km/h (3 Bft) 97 %
18.02.2022 09:50 7,4 C 7,3 C 7,4 C 86 % 1007,7 hPa 0,0 l/m 4,8 km/h (1 Bft) S 180 0 min 0,000 mm 51 W/m 5,2 C 7,4 C 16,1 km/h (3 Bft) 98 %
18.02.2022 10:00 7,6 C 7,4 C 7,6 C 86 % 1007,6 hPa 0,0 l/m 3,2 km/h (1 Bft) S 180 0 min 0,025 mm 63 W/m 5,4 C 7,6 C 14,5 km/h (3 Bft) 97 %
18.02.2022 10:10 7,7 C 7,6 C 7,7 C 85 % 1007,3 hPa 0,0 l/m 3,2 km/h (1 Bft) S 180 0 min 0,000 mm 98 W/m 5,3 C 7,7 C 11,3 km/h (2 Bft) 98 %
18.02.2022 10:20 8,0 C 7,7 C 8,0 C 85 % 1007,2 hPa 0,0 l/m 3,2 km/h (1 Bft) S 180 0 min 0,000 mm 111 W/m 5,6 C 8,0 C 14,5 km/h (3 Bft) 98 %
18.02.2022 10:30 8,2 C 8,0 C 8,2 C 85 % 1007,0 hPa 0,0 l/m 3,2 km/h (1 Bft) S 180 10 min 0,000 mm 185 W/m 5,8 C 8,2 C 17,7 km/h (3 Bft) 97 %
18.02.2022 10:40 8,6 C 8,2 C 8,6 C 84 % 1007,0 hPa 0,0 l/m 3,2 km/h (1 Bft) S 180 10 min 0,000 mm 178 W/m 6,1 C 8,6 C 16,1 km/h (3 Bft) 98 %
18.02.2022 10:50 8,8 C 8,6 C 8,8 C 84 % 1006,7 hPa 0,0 l/m 3,2 km/h (1 Bft) S-SW 202 0 min 0,000 mm 111 W/m 6,2 C 8,8 C 14,5 km/h (3 Bft) 97 %
18.02.2022 11:00 9,0 C 8,8 C 9,0 C 85 % 1006,6 hPa 0,0 l/m 4,8 km/h (1 Bft) S-SW 202 10 min 0,051 mm 178 W/m 6,6 C 9,0 C 17,7 km/h (3 Bft) 98 %
18.02.2022 11:10 9,3 C 9,0 C 9,3 C 84 % 1006,5 hPa 0,0 l/m 4,8 km/h (1 Bft) S 180 10 min 0,000 mm 195 W/m 6,7 C 9,3 C 17,7 km/h (3 Bft) 97 %
18.02.2022 11:20 9,6 C 9,3 C 9,6 C 84 % 1006,2 hPa 0,0 l/m 4,8 km/h (1 Bft) S 180 10 min 0,000 mm 220 W/m 7,0 C 9,6 C 16,1 km/h (3 Bft) 98 %
18.02.2022 11:30 9,7 C 9,6 C 9,7 C 84 % 1006,1 hPa 0,0 l/m 4,8 km/h (1 Bft) S-SW 202 0 min 0,000 mm 149 W/m 7,1 C 9,7 C 16,1 km/h (3 Bft) 97 %
18.02.2022 11:50 10,2 C 9,6 C 10,2 C 84 % 1005,4 hPa 0,0 l/m 5,9 km/h (2 Bft) SO 138 20 min 0,000 mm 167 W/m 7,6 C 10,2 C 16,1 km/h (3 Bft) 100 %
18.02.2022 12:00 10,5 C 10,2 C 10,5 C 84 % 1005,3 hPa 0,0 l/m 3,5 km/h (1 Bft) S 181 10 min 0,000 mm 260 W/m 7,9 C 10,5 C 16,1 km/h (3 Bft) 100 %
18.02.2022 12:10 11,0 C 10,5 C 11,0 C 84 % 1005,1 hPa 0,0 l/m 4,4 km/h (1 Bft) SO 143 10 min 0,054 mm 295 W/m 8,4 C 11,0 C 19,3 km/h (3 Bft) 100 %
18.02.2022 12:20 11,4 C 11,0 C 11,4 C 83 % 1004,9 hPa 0,0 l/m 5,0 km/h (1 Bft) S-SW 204 10 min 0,000 mm 332 W/m 8,6 C 11,4 C 16,1 km/h (3 Bft) 100 %
18.02.2022 12:30 12,3 C 11,4 C 12,3 C 81 % 1004,6 hPa 0,0 l/m 11,1 km/h (2 Bft) W-SW 250 10 min 0,000 mm 346 W/m 9,1 C 9,6 C 29,0 km/h (5 Bft) 100 %
18.02.2022 12:40 13,3 C 12,3 C 13,3 C 77 % 1004,4 hPa 0,0 l/m 15,4 km/h (3 Bft) S-SW 198 10 min 0,000 mm 383 W/m 9,4 C 9,0 C 41,8 km/h (6 Bft) 100 %
18.02.2022 12:50 13,6 C 13,3 C 13,6 C 75 % 1003,9 hPa 0,0 l/m 21,2 km/h (4 Bft) W-SW 250 0 min 0,000 mm 98 W/m 9,3 C 7,6 C 45,1 km/h (6 Bft) 100 %
18.02.2022 13:00 13,4 C 13,4 C 13,6 C 75 % 1003,6 hPa 0,0 l/m 18,6 km/h (3 Bft) S-SW 203 10 min 0,178 mm 190 W/m 9,1 C 8,1 C 43,5 km/h (6 Bft) 99 %
18.02.2022 13:10 13,6 C 13,4 C 13,6 C 72 % 1003,5 hPa 0,0 l/m 21,3 km/h (4 Bft) SW 223 10 min 0,000 mm 169 W/m 8,6 C 7,6 C 48,3 km/h (6 Bft) 100 %
18.02.2022 13:20 13,7 C 13,6 C 13,7 C 72 % 1003,5 hPa 0,0 l/m 16,9 km/h (3 Bft) S-SW 207 0 min 0,000 mm 148 W/m 8,7 C 9,0 C 38,6 km/h (5 Bft) 100 %
18.02.2022 13:30 13,7 C 13,7 C 13,7 C 72 % 1003,3 hPa 0,0 l/m 19,8 km/h (3 Bft) W-SW 246 0 min 0,000 mm 151 W/m 8,7 C 8,1 C 41,8 km/h (6 Bft) 100 %
18.02.2022 13:40 13,6 C 13,6 C 13,7 C 73 % 1003,3 hPa 0,0 l/m 17,3 km/h (3 Bft) W-SW 257 0 min 0,000 mm 148 W/m 8,9 C 8,7 C 37,0 km/h (5 Bft) 100 %
18.02.2022 13:50 13,6 C 13,6 C 13,7 C 72 % 1003,3 hPa 0,0 l/m 26,0 km/h (4 Bft) S 191 10 min 0,000 mm 162 W/m 8,6 C 6,5 C 53,1 km/h (7 Bft) 99 %
18.02.2022 14:00 13,7 C 13,6 C 13,7 C 72 % 1003,2 hPa 0,0 l/m 25,2 km/h (4 Bft) SW 231 10 min 0,152 mm 199 W/m 8,7 C 6,8 C 51,5 km/h (7 Bft) 100 %
18.02.2022 14:10 13,7 C 13,7 C 13,7 C 72 % 1003,0 hPa 0,0 l/m 17,8 km/h (3 Bft) S-SW 195 0 min 0,000 mm 95 W/m 8,7 C 8,7 C 41,8 km/h (6 Bft) 100 %
18.02.2022 14:20 13,6 C 13,6 C 13,7 C 72 % 1002,7 hPa 0,0 l/m 19,6 km/h (3 Bft) SW 233 0 min 0,000 mm 93 W/m 8,6 C 8,0 C 40,2 km/h (6 Bft) 100 %
18.02.2022 14:30 13,6 C 13,5 C 13,6 C 73 % 1002,7 hPa 0,0 l/m 18,5 km/h (3 Bft) SW 234 0 min 0,000 mm 67 W/m 8,9 C 8,4 C 48,3 km/h (6 Bft) 100 %
18.02.2022 14:40 13,4 C 13,4 C 13,6 C 73 % 1002,5 hPa 0,0 l/m 19,0 km/h (3 Bft) SW 219 0 min 0,000 mm 100 W/m 8,7 C 8,0 C 37,0 km/h (5 Bft) 100 %
18.02.2022 14:50 13,4 C 13,3 C 13,4 C 74 % 1002,3 hPa 0,0 l/m 15,1 km/h (3 Bft) S-SW 205 0 min 0,000 mm 98 W/m 8,9 C 9,2 C 40,2 km/h (6 Bft) 100 %
18.02.2022 15:00 13,4 C 13,3 C 13,4 C 74 % 1002,3 hPa 0,0 l/m 13,8 km/h (3 Bft) SW 214 0 min 0,102 mm 79 W/m 8,9 C 9,7 C 29,0 km/h (5 Bft) 100 %
18.02.2022 15:10 13,4 C 13,4 C 13,4 C 73 % 1002,4 hPa 0,0 l/m 14,5 km/h (3 Bft) W-SW 252 0 min 0,000 mm 91 W/m 8,7 C 9,4 C 30,6 km/h (5 Bft) 100 %
18.02.2022 15:20 13,4 C 13,4 C 13,4 C 72 % 1002,2 hPa 0,0 l/m 13,7 km/h (3 Bft) SW 232 0 min 0,000 mm 130 W/m 8,5 C 9,7 C 40,2 km/h (6 Bft) 100 %
18.02.2022 15:30 13,5 C 13,4 C 13,5 C 71 % 1002,1 hPa 0,0 l/m 13,6 km/h (3 Bft) W-SW 250 0 min 0,000 mm 137 W/m 8,3 C 9,9 C 38,6 km/h (5 Bft) 100 %
18.02.2022 15:40 13,4 C 13,4 C 13,5 C 72 % 1002,1 hPa 0,0 l/m 14,3 km/h (3 Bft) W 267 0 min 0,000 mm 54 W/m 8,5 C 9,5 C 33,8 km/h (5 Bft) 100 %
18.02.2022 15:50 13,3 C 13,3 C 13,4 C 72 % 1001,9 hPa 0,0 l/m 15,1 km/h (3 Bft) S 184 0 min 0,000 mm 67 W/m 8,4 C 9,1 C 38,6 km/h (5 Bft) 100 %
18.02.2022 16:00 13,2 C 13,2 C 13,3 C 72 % 1002,0 hPa 0,0 l/m 13,6 km/h (3 Bft) W-SW 246 0 min 0,101 mm 21 W/m 8,3 C 9,5 C 30,6 km/h (5 Bft) 100 %
18.02.2022 16:10 13,1 C 13,1 C 13,2 C 73 % 1002,0 hPa 0,0 l/m 12,6 km/h (3 Bft) W 263 0 min 0,000 mm 7 W/m 8,4 C 9,8 C 33,8 km/h (5 Bft) 100 %
18.02.2022 16:20 12,9 C 12,9 C 13,1 C 73 % 1002,1 hPa 0,0 l/m 20,9 km/h (4 Bft) W 265 0 min 0,000 mm 9 W/m 8,2 C 6,8 C 51,5 km/h (7 Bft) 100 %
18.02.2022 16:30 12,9 C 12,9 C 12,9 C 72 % 1001,7 hPa 0,0 l/m 15,3 km/h (3 Bft) S-SW 213 0 min 0,000 mm 25 W/m 8,0 C 8,5 C 46,7 km/h (6 Bft) 100 %
18.02.2022 16:40 13,0 C 12,9 C 13,0 C 71 % 1001,3 hPa 0,0 l/m 22,7 km/h (4 Bft) SW 220 0 min 0,000 mm 12 W/m 7,9 C 6,4 C 49,9 km/h (6 Bft) 100 %
18.02.2022 16:50 13,1 C 13,0 C 13,1 C 71 % 1000,9 hPa 0,0 l/m 22,5 km/h (4 Bft) S-SW 196 0 min 0,000 mm 25 W/m 8,0 C 6,6 C 45,1 km/h (6 Bft) 100 %
18.02.2022 17:00 13,1 C 13,1 C 13,1 C 72 % 1000,9 hPa 0,0 l/m 21,8 km/h (4 Bft) SW 216 0 min 0,076 mm 16 W/m 8,2 C 6,8 C 48,3 km/h (6 Bft) 100 %
18.02.2022 17:10 13,1 C 13,0 C 13,1 C 72 % 1000,9 hPa 0,0 l/m 18,5 km/h (3 Bft) S-SW 206 0 min 0,000 mm 7 W/m 8,2 C 7,7 C 43,5 km/h (6 Bft) 100 %
18.02.2022 17:20 13,1 C 13,1 C 13,1 C 72 % 1000,7 hPa 0,0 l/m 21,8 km/h (4 Bft) S-SW 199 0 min 0,000 mm 0 W/m 8,2 C 6,8 C 45,1 km/h (6 Bft) 100 %
18.02.2022 17:30 13,1 C 13,1 C 13,1 C 72 % 1000,4 hPa 0,0 l/m 18,8 km/h (3 Bft) SW 226 0 min 0,000 mm 0 W/m 8,2 C 7,6 C 40,2 km/h (6 Bft) 100 %
18.02.2022 17:40 13,1 C 13,1 C 13,2 C 71 % 1000,6 hPa 0,0 l/m 23,8 km/h (4 Bft) S-SW 206 0 min 0,000 mm 0 W/m 8,0 C 6,3 C 49,9 km/h (6 Bft) 100 %
18.02.2022 17:50 13,2 C 13,1 C 13,2 C 71 % 1000,4 hPa 0,0 l/m 21,6 km/h (4 Bft) W 270 0 min 0,000 mm 0 W/m 8,1 C 7,0 C 59,5 km/h (7 Bft) 100 %
18.02.2022 18:00 13,3 C 13,2 C 13,3 C 70 % 1000,4 hPa 0,0 l/m 27,2 km/h (4 Bft) SW 221 0 min 0,077 mm 0 W/m 7,9 C 5,8 C 74,0 km/h (8 Bft) 100 %
18.02.2022 18:10 13,3 C 13,3 C 13,3 C 70 % 1000,5 hPa 0,0 l/m 23,5 km/h (4 Bft) W 261 0 min 0,000 mm 0 W/m 7,9 C 6,6 C 59,5 km/h (7 Bft) 100 %
18.02.2022 18:20 13,4 C 13,3 C 13,4 C 69 % 1000,5 hPa 0,0 l/m 28,7 km/h (4 Bft) W 269 0 min 0,000 mm 0 W/m 7,8 C 5,7 C 53,1 km/h (7 Bft) 100 %
18.02.2022 18:30 13,3 C 13,3 C 13,4 C 70 % 1000,7 hPa 0,0 l/m 20,9 km/h (4 Bft) W-SW 256 0 min 0,000 mm 0 W/m 7,9 C 7,3 C 51,5 km/h (7 Bft) 100 %
18.02.2022 18:40 13,1 C 13,1 C 13,3 C 73 % 1001,4 hPa 0,0 l/m 23,9 km/h (4 Bft) W-SW 250 0 min 0,000 mm 0 W/m 8,4 C 6,3 C 66,0 km/h (8 Bft) 98 %
18.02.2022 18:50 12,3 C 12,3 C 13,1 C 80 % 1002,4 hPa 0,4 l/m 35,7 km/h (5 Bft) W-NW 298 0 min 0,000 mm 0 W/m 8,9 C 2,9 C 61,2 km/h (7 Bft) 100 %
18.02.2022 19:00 9,4 C 9,4 C 12,2 C 80 % 1002,7 hPa 0,4 l/m 35,4 km/h (5 Bft) W-NW 292 0 min 0,076 mm 0 W/m 6,1 C -1,2 C 61,2 km/h (7 Bft) 98 %
18.02.2022 19:10 8,6 C 8,6 C 9,3 C 77 % 1002,8 hPa 0,0 l/m 33,8 km/h (5 Bft) W 270 0 min 0,000 mm 0 W/m 4,8 C -2,1 C 64,4 km/h (8 Bft) 97 %
18.02.2022 19:20 8,6 C 8,6 C 8,6 C 76 % 1003,3 hPa 0,0 l/m 27,4 km/h (4 Bft) W-SW 247 0 min 0,000 mm 0 W/m 4,6 C -0,7 C 49,9 km/h (6 Bft) 98 %
18.02.2022 19:40 8,8 C 8,6 C 8,8 C 73 % 1004,1 hPa 0,0 l/m 27,7 km/h (4 Bft) W 261 0 min 0,000 mm 0 W/m 4,2 C -0,5 C 51,5 km/h (7 Bft) 100 %
18.02.2022 19:50 8,8 C 8,8 C 8,8 C 70 % 1004,1 hPa 0,0 l/m 25,9 km/h (4 Bft) W 261 0 min 0,000 mm 0 W/m 3,6 C -0,0 C 48,3 km/h (6 Bft) 100 %
18.02.2022 20:00 8,8 C 8,8 C 8,9 C 70 % 1004,4 hPa 0,0 l/m 23,2 km/h (4 Bft) W-SW 256 0 min 0,076 mm 0 W/m 3,6 C 0,7 C 48,3 km/h (6 Bft) 100 %
18.02.2022 20:10 8,8 C 8,8 C 8,9 C 70 % 1004,2 hPa 0,0 l/m 14,5 km/h (3 Bft) W 259 0 min 0,000 mm 0 W/m 3,6 C 3,9 C 40,2 km/h (6 Bft) 99 %
18.02.2022 20:20 8,8 C 8,8 C 8,8 C 69 % 1004,5 hPa 0,0 l/m 13,6 km/h (3 Bft) SW 218 0 min 0,000 mm 0 W/m 3,4 C 4,3 C 43,5 km/h (6 Bft) 100 %
18.02.2022 20:30 8,8 C 8,8 C 8,8 C 70 % 1004,6 hPa 0,0 l/m 14,7 km/h (3 Bft) W-SW 254 0 min 0,000 mm 0 W/m 3,6 C 3,8 C 41,8 km/h (6 Bft) 100 %
18.02.2022 20:40 8,8 C 8,8 C 8,8 C 70 % 1004,8 hPa 0,0 l/m 16,8 km/h (3 Bft) W 269 0 min 0,000 mm 0 W/m 3,6 C 2,9 C 41,8 km/h (6 Bft) 100 %
18.02.2022 20:50 8,8 C 8,8 C 8,8 C 70 % 1004,8 hPa 0,0 l/m 16,2 km/h (3 Bft) W-NW 286 0 min 0,000 mm 0 W/m 3,6 C 3,2 C 46,7 km/h (6 Bft) 100 %
18.02.2022 21:00 8,7 C 8,7 C 8,8 C 70 % 1005,0 hPa 0,0 l/m 17,4 km/h (3 Bft) W 274 0 min 0,000 mm 0 W/m 3,5 C 2,6 C 54,7 km/h (7 Bft) 100 %
18.02.2022 21:10 8,7 C 8,7 C 8,8 C 70 % 1005,2 hPa 0,0 l/m 24,1 km/h (4 Bft) W-SW 247 0 min 0,000 mm 0 W/m 3,5 C 0,3 C 40,2 km/h (6 Bft) 97 %
18.02.2022 21:20 8,7 C 8,7 C 8,7 C 69 % 1005,4 hPa 0,0 l/m 19,3 km/h (3 Bft) W 270 0 min 0,000 mm 0 W/m 3,3 C 1,9 C 46,7 km/h (6 Bft) 97 %
18.02.2022 21:30 8,7 C 8,7 C 8,7 C 69 % 1005,4 hPa 0,0 l/m 22,5 km/h (4 Bft) W 270 0 min 0,000 mm 0 W/m 3,3 C 0,8 C 53,1 km/h (7 Bft) 97 %
18.02.2022 21:40 8,7 C 8,6 C 8,7 C 68 % 1005,6 hPa 0,0 l/m 24,1 km/h (4 Bft) W 270 0 min 0,000 mm 0 W/m 3,1 C 0,3 C 54,7 km/h (7 Bft) 89 %
18.02.2022 21:50 8,6 C 8,6 C 8,7 C 68 % 1005,8 hPa 0,0 l/m 24,1 km/h (4 Bft) W 270 0 min 0,000 mm 0 W/m 3,0 C 0,2 C 53,1 km/h (7 Bft) 97 %
18.02.2022 22:00 8,6 C 8,6 C 8,6 C 67 % 1006,0 hPa 0,0 l/m 27,4 km/h (4 Bft) W 270 0 min 0,076 mm 0 W/m 2,8 C -0,7 C 56,3 km/h (7 Bft) 98 %
18.02.2022 22:10 8,6 C 8,6 C 8,6 C 67 % 1006,0 hPa 0,0 l/m 27,4 km/h (4 Bft) W 270 0 min 0,000 mm 0 W/m 2,8 C -0,7 C 49,9 km/h (6 Bft) 97 %
18.02.2022 22:20 8,6 C 8,5 C 8,6 C 67 % 1006,2 hPa 0,0 l/m 27,4 km/h (4 Bft) W 270 0 min 0,000 mm 0 W/m 2,8 C -0,7 C 48,3 km/h (6 Bft) 98 %
18.02.2022 22:30 8,6 C 8,5 C 8,6 C 67 % 1006,6 hPa 0,0 l/m 27,4 km/h (4 Bft) W 270 0 min 0,000 mm 0 W/m 2,8 C -0,7 C 53,1 km/h (7 Bft) 97 %
18.02.2022 22:40 8,5 C 8,5 C 8,6 C 65 % 1006,8 hPa 0,0 l/m 29,0 km/h (5 Bft) W 270 0 min 0,000 mm 0 W/m 2,3 C -1,2 C 57,9 km/h (7 Bft) 98 %
18.02.2022 22:50 8,4 C 8,4 C 8,5 C 66 % 1007,0 hPa 0,0 l/m 29,0 km/h (5 Bft) W 270 0 min 0,000 mm 0 W/m 2,4 C -1,4 C 56,3 km/h (7 Bft) 98 %
18.02.2022 23:00 8,3 C 8,3 C 8,4 C 64 % 1007,3 hPa 0,0 l/m 25,7 km/h (4 Bft) W 270 0 min 0,076 mm 0 W/m 1,9 C -0,7 C 48,3 km/h (6 Bft) 97 %
18.02.2022 23:10 8,3 C 8,3 C 8,3 C 61 % 1007,6 hPa 0,0 l/m 29,0 km/h (5 Bft) W 270 0 min 0,000 mm 0 W/m 1,2 C -1,5 C 53,1 km/h (7 Bft) 98 %
18.02.2022 23:20 8,2 C 8,2 C 8,3 C 64 % 1007,6 hPa 0,0 l/m 25,7 km/h (4 Bft) W 270 0 min 0,000 mm 0 W/m 1,8 C -0,8 C 45,1 km/h (6 Bft) 97 %
18.02.2022 23:30 8,1 C 8,1 C 8,2 C 65 % 1007,7 hPa 0,0 l/m 22,5 km/h (4 Bft) W-SW 247 0 min 0,000 mm 0 W/m 1,9 C 0,0 C 45,1 km/h (6 Bft) 98 %
18.02.2022 23:40 7,9 C 7,9 C 8,1 C 66 % 1008,0 hPa 0,0 l/m 22,5 km/h (4 Bft) W 270 0 min 0,000 mm 0 W/m 1,9 C -0,3 C 41,8 km/h (6 Bft) 97 %
18.02.2022 23:50 7,8 C 7,8 C 7,9 C 65 % 1008,1 hPa 0,0 l/m 17,7 km/h (3 Bft) W 270 0 min 0,000 mm 0 W/m 1,6 C 1,3 C 45,1 km/h (6 Bft) 97 %
_ Min-Zeit 07:10 07:10 07:20 23:10 17:30 - 04:40 - - - - - 23:10 19:10 05:20 21:40
Minimum _ 6,3 C 6,3 C 6,4 C 61 % 1000,4 hPa - 0,0 km/h (0 Bft) - - - - - 1,2 C -2,1 C 0,0 km/h (0 Bft) 89 %
_ Max-Zeit 13:20 13:30 13:20 09:40 00:00 18:50 18:50 - - 11:50 13:00 12:40 12:40 12:20 18:00 00:00
Maximum _ 13,7 C 13,7 C 13,7 C 86 % 1013,8 hPa 0,4 l/m 35,7 km/h
W-NW (5 Bft)
- - 20 min 0,178 mm 383 W/m 9,4 C 11,4 C 74,0 km/h
S-SW (8 Bft)
100 %
Durchschnitt _ 9,4 C 9,3 C 9,5 C 76 % 1007,3 hPa #1,0 l/m 12,1 km/h (2 Bft) SW - #2:40 h #1,295 mm 109 W/m 5,3 C 6,2 C 30,4 km/h (5 Bft) 99 %
PRIVATE WETTERSTATION BILLIGHEIM-ALLFELD - www.neckar-odenwald-wetter.de - Holger Sonntag